Tiempo atmosférico en la estación meteorológica de Mora, Toledo (717 m.)



Fecha
DESCASC
Temp. máxima en grados centígrados (hora)
DESCASC
Temp. mínima en grados centígrados (hora)
DESCASC
Temp. media en grados centígrados
DESCASC
Racha de viento máxima en m/sg (hora)
DESCASC
Velocidad máxima media en intervalos de 10 minutos(hora)
DESCASC
Precipitaciones diarias en mm
DESCASC
Precipitaciones de 00:00 a 06:00 en mm
DESCASC
Precipitaciones de 06:00 a 12:00 en mm
DESCASC
Precipitaciones de 12:00 a 18:00 en mm
DESCASC
Precipitaciones de 18:00 a 24:00 en mm
DESCASC
02-07-2020 32.4 (16:40) 20.4 (06:50) 26.4 14.17 (16:40) 6.11 (14:40) 0 0 0 0 0
01-07-2020 34.6 (17:00) 22 (07:10) 28.3 12.78 (18:00) 6.11 (16:50) 0 0 0 0 0
30-06-2020 37.2 (16:40) 21.8 (00:00) 29.5 10.56 (17:40) 5.28 (18:10) 0 0 0 0 0
29-06-2020 36.5 (18:10) 20.8 (00:00) 28.6 9.17 (14:20) 4.17 (18:20) 0 0 0 0 0
28-06-2020 34.9 (17:20) 19.3 (00:00) 27.1 8.61 (18:50) 3.89 (17:40) 0 0 0 0 0
27-06-2020 32 (18:10) 17.2 (00:00) 24.6 8.61 (17:30) 4.72 (17:30) 0 0 0 0 0
26-06-2020 30.9 (16:00) 18.7 (00:00) 24.8 10.28 (18:20) 6.11 (19:10) 0 0 0 0 0
25-06-2020 34.5 (17:20) 20 (00:00) 27.3 11.67 (19:00) 5.83 (02:10) 0 0 0 0 0
24-06-2020 32.2 (17:00) 19.7 (00:00) 26 10.28 (23:00) 5.56 (05:20) 1 0 1 0 0
23-06-2020 36.8 (17:30) 19.4 (00:00) 28.1 10.56 (23:20) 5.56 (23:20) 0 0 0 0 0
22-06-2020 35.9 (18:50) 16.7 (00:00) 26.3 6.39 (13:40) 3.33 (10:20) 0 0 0 0 0
21-06-2020 34.1 (18:30) 18.5 (00:00) 26.3 7.22 (20:50) 4.17 (20:50) 0 0 0 0 0
20-06-2020 32 (18:00) 16.2 (00:00) 24.1 9.17 (16:30) 5 (18:10) 0 0 0 0 0
19-06-2020 29.8 (18:00) 15.3 (00:00) 22.5 13.33 (15:40) 5 (17:30) 0 0 0 0 0
18-06-2020 28.9 (19:00) 14.2 (06:50) 21.5 11.39 (15:50) 4.44 (19:10) 0 0 0 0 0
17-06-2020 25.9 (18:00) 13 (00:00) 19.4 7.78 (16:10) 4.17 (16:40) 0 0 0 0 0
16-06-2020 26.2 (16:40) 14 (00:00) 20.1 12.22 (17:10) 7.5 (20:40) 0 0 0 0 0
15-06-2020 27.2 (18:40) 12.7 (00:00) 20 10 (17:10) 5.28 (17:10) 0 0 0 0 0
14-06-2020 26.1 (18:10) 12.5 (00:00) 19.3 9.17 (15:20) 5 (20:30) 0 0 0 0 0
13-06-2020 23.2 (17:00) 9.5 (00:00) 16.4 8.33 (15:50) 5 (21:00) 0 0 0 0 0
12-06-2020 -- (--) -- (--) -- -- (--) -- (--) -- -- -- -- 0.2
11-06-2020 -- (--) -- (--) -- -- (--) -- (--) -- -- -- -- --
10-06-2020 -- (--) -- (--) -- -- (--) -- (--) -- -- -- -- --
09-06-2020 -- (--) -- (--) -- -- (--) -- (--) -- -- -- -- --
08-06-2020 -- (--) -- (--) -- -- (--) -- (--) -- -- -- -- --
07-06-2020 -- (--) -- (--) -- -- (--) -- (--) -- 0 0 -- --
06-06-2020 26.9 (17:50) 14.9 (00:00) 20.9 13.33 (18:30) 6.67 (18:20) 0 0 0 0 0
05-06-2020 27.7 (17:40) 10.6 (00:00) 19.2 6.94 (15:40) 4.44 (19:50) 0.2 0.2 0 0 0

Gráficas

Temp. máximas Temp. mínimas Temp. medias Precipitaciones Rachas de viento máximas Velocidades máximas media en intervalos de 10 minutos

Datos horarios

Fecha y hora oficial Temperatura (ºC) Velocidad del viento (km/h) Dirección del viento Racha (km/h) Dirección de racha Precipitación (mm) Presión (hPa) Tendencia (hPa) Humedad (%)
2020-07-04 23:00:00 26.8 3 Nordeste 8 Nordeste 0 -- -- 27
2020-07-04 22:00:00 29.6 5 Nordeste 14 Norte 0 -- -- 23
2020-07-04 21:00:00 32.4 8 Norte 18 Nordeste 0 -- -- 21
2020-07-04 20:00:00 33.3 13 Norte 23 Nordeste 0 -- -- 21
2020-07-04 19:00:00 34 13 Noroeste 25 Norte 0 -- -- 21
2020-07-04 18:00:00 34.1 6 Noroeste 23 Norte 0 -- -- 22
2020-07-04 17:00:00 33.5 8 Nordeste 20 Nordeste 0 -- -- 24
2020-07-04 16:00:00 32.6 7 Norte 21 Sudoeste 0 -- -- 24
2020-07-04 15:00:00 32.6 6 Norte 16 Oeste 0 -- -- 27
2020-07-04 14:00:00 31.3 8 Norte 22 Nordeste 0 -- -- 28
2020-07-04 13:00:00 29.6 8 Norte 17 Nordeste 0 -- -- 36
2020-07-04 12:00:00 27.7 8 Norte 18 Nordeste 0 -- -- 47
2020-07-04 11:00:00 25.3 9 Nordeste 19 Nordeste 0 -- -- 59
2020-07-04 10:00:00 24.2 6 Este 14 Este 0 -- -- 65
2020-07-04 09:00:00 21.7 4 Sudeste 10 Sudeste 0 -- -- 71
2020-07-04 08:00:00 19.3 3 Sur 5 Sur 0 -- -- 53
2020-07-04 07:00:00 18.6 4 Nordeste 11 Este 0 -- -- 70
2020-07-04 06:00:00 15.7 2 Norte 5 Nordeste 0 -- -- 43
2020-07-04 05:00:00 18.2 2 Norte 5 Nordeste 0 -- -- 38
2020-07-04 04:00:00 17.9 0 Calma 7 Sudeste 0 -- -- 37
2020-07-04 03:00:00 21.1 2 Sudeste 9 Sudoeste 0 -- -- 31
2020-07-04 02:00:00 22 6 Sur 10 Sur 0 -- -- 29
2020-07-04 01:00:00 22.8 2 Sudeste 20 Noroeste 0 -- -- 29
2020-07-04 00:00:00 24 5 Sur 9 Sur 0 -- -- 27
2020-07-03 23:00:00 25.2 0 Calma 8 Norte 0 -- -- 26
2020-07-03 22:00:00 27.1 4 Norte 15 Norte 0 -- -- 23
2020-07-03 21:00:00 30.5 8 Norte 21 Oeste 0 -- -- 20
2020-07-03 20:00:00 31.2 13 Norte 23 Norte 0 -- -- 21
2020-07-03 19:00:00 31.8 8 Norte 21 Noroeste 0 -- -- 20
2020-07-03 18:00:00 32 6 Nordeste 23 Norte 0 -- -- 20
2020-07-03 17:00:00 31.4 8 Norte 21 Oeste 0 -- -- 19
2020-07-03 16:00:00 30.4 11 Noroeste 22 Noroeste 0 -- -- 22
2020-07-03 15:00:00 29.9 6 Noroeste 17 Oeste 0 -- -- 25
2020-07-03 14:00:00 28.1 7 Sur 18 Sur 0 -- -- 27
2020-07-03 13:00:00 26.9 6 Este 20 Norte 0 -- -- 33
2020-07-03 12:00:00 24.6 8 Norte 19 Noroeste 0 -- -- 45
2020-07-03 11:00:00 22.3 8 Norte 18 Norte 0 -- -- 52
2020-07-03 10:00:00 20.5 8 Norte 16 Norte 0 -- -- 58
2020-07-03 09:00:00 18.4 6 Norte 13 Noroeste 0 -- -- 63
2020-07-03 08:00:00 17.8 5 Noroeste 10 Oeste 0 -- -- 50
2020-07-03 07:00:00 16.7 3 Sudoeste 8 Sudoeste 0 -- -- 47
2020-07-03 06:00:00 18 3 Sudoeste 11 Oeste 0 -- -- 44
2020-07-03 05:00:00 19.1 7 Oeste 14 Oeste 0 -- -- 41
2020-07-03 04:00:00 19.4 6 Oeste 16 Oeste 0 -- -- 40
2020-07-03 03:00:00 20.4 10 Oeste 15 Oeste 0 -- -- 39
2020-07-03 02:00:00 21.9 8 Oeste 14 Oeste 0 -- -- 36
2020-07-03 01:00:00 23.1 3 Sudoeste 10 Oeste 0 -- -- 36
2020-07-03 00:00:00 24.1 6 Oeste 16 Oeste 0 -- -- 34
2020-07-02 23:00:00 25.6 9 Oeste 26 Oeste 0 -- -- 31
2020-07-02 22:00:00 27.1 15 Oeste 34 Oeste 0 -- -- 29
2020-07-02 21:00:00 29 21 Oeste 34 Oeste 0 -- -- 30
2020-07-02 20:00:00 30.8 22 Oeste 36 Oeste 0 -- -- 24
2020-07-02 19:00:00 32 13 Sudoeste 35 Oeste 0 -- -- 24
2020-07-02 18:00:00 32 17 Sudoeste 38 Oeste 0 -- -- 23
2020-07-02 17:00:00 31.8 15 Oeste 51 Sudoeste 0 -- -- 23
2020-07-02 16:00:00 31.5 21 Sudoeste 41 Sudoeste 0 -- -- 21
2020-07-02 15:00:00 31.5 20 Sudoeste 39 Sudoeste 0 -- -- 19
2020-07-02 14:00:00 31 18 Oeste 35 Sudoeste 0 -- -- 20
2020-07-02 13:00:00 30.7 15 Oeste 35 Oeste 0 -- -- 24
2020-07-02 12:00:00 29.5 12 Noroeste 28 Sudoeste 0 -- -- 25
2020-07-02 11:00:00 28.8 12 Oeste 24 Oeste 0 -- -- 27
2020-07-02 10:00:00 27.6 8 Oeste 15 Oeste 0 -- -- 34
2020-07-02 09:00:00 24.8 2 Sudeste 8 Sur 0 -- -- 39
2020-07-02 08:00:00 21.7 3 Sudeste 8 Sur 0 -- -- 46
2020-07-02 07:00:00 20.5 4 Sur 9 Sur 0 -- -- 47
2020-07-02 06:00:00 21.6 2 Sudoeste 6 Oeste 0 -- -- 43
2020-07-02 05:00:00 22.2 4 Oeste 9 Oeste 0 -- -- 42
2020-07-02 04:00:00 22.8 4 Oeste 9 Sudoeste 0 -- -- 43
2020-07-02 03:00:00 23.1 3 Oeste 9 Norte 0 -- -- 46
2020-07-02 02:00:00 24.5 4 Sur 15 Sudoeste 0 -- -- 42
2020-07-02 01:00:00 26 7 Oeste 14 Sudoeste 0 -- -- 39
2020-07-02 00:00:00 26.3 6 Oeste 15 Noroeste 0 -- -- 27
2020-07-01 23:00:00 27.6 8 Oeste 18 Sudoeste 0 -- -- 23
2020-07-01 22:00:00 29.9 12 Sudoeste 23 Sudoeste 0 -- -- 21
2020-07-01 21:00:00 32.1 15 Sudoeste 31 Sudoeste 0 -- -- 22
2020-07-01 20:00:00 33.4 13 Sudoeste 32 Sudoeste 0 -- -- 20
2020-07-01 19:00:00 33.9 15 Sudoeste 34 Sudoeste 0 -- -- 18
2020-07-01 18:00:00 34.1 19 Sudoeste 46 Oeste 0 -- -- 18
2020-07-01 17:00:00 34.6 18 Sudoeste 42 Sudoeste 0 -- -- 18
2020-07-01 16:00:00 33.6 21 Sudoeste 37 Sudoeste 0 -- -- 23
2020-07-01 15:00:00 33.4 21 Oeste 37 Sudoeste 0 -- -- 24
2020-07-01 14:00:00 32.3 17 Oeste 36 Sudoeste 0 -- -- 26
2020-07-01 13:00:00 31.3 15 Sudoeste 30 Sur 0 -- -- 25
2020-07-01 12:00:00 30.5 17 Sudoeste 34 Sudoeste 0 -- -- 24
2020-07-01 11:00:00 29.7 18 Sudoeste 36 Sudoeste 0 -- -- 23
2020-07-01 10:00:00 28.4 13 Sudoeste 26 Sudoeste 0 -- -- 34
2020-07-01 09:00:00 26.4 9 Sudoeste 21 Sudoeste 0 -- -- 37
2020-07-01 08:00:00 23.9 6 Sur 14 Sur 0 -- -- 39
2020-07-01 07:00:00 22.4 6 Sur 12 Sudeste 0 -- -- 43
2020-07-01 06:00:00 22.7 3 Sudeste 9 Sur 0 -- -- 43
2020-07-01 05:00:00 24.3 4 Sudoeste 17 Sudoeste 0 -- -- 40
2020-07-01 04:00:00 24.7 5 Sur 15 Sudoeste 0 -- -- 39
2020-07-01 03:00:00 25.4 9 Sudoeste 21 Sudoeste 0 -- -- 37
2020-07-01 02:00:00 26.7 12 Oeste 23 Oeste 0 -- -- 34
2020-07-01 01:00:00 27.3 6 Oeste 13 Oeste 0 -- -- 32
2020-07-01 00:00:00 28.3 5 Oeste 14 Oeste 0 -- -- 28
2020-06-30 23:00:00 29.3 5 Oeste 12 Oeste 0 -- -- 25
2020-06-30 22:00:00 31.8 8 Oeste 19 Sudoeste 0 -- -- 22
2020-06-30 21:00:00 34.6 13 Sudoeste 29 Sudoeste 0 -- -- 20
2020-06-30 20:00:00 35.7 13 Sudoeste 34 Sudoeste 0 -- -- 19
2020-06-30 19:00:00 36.4 15 Sudoeste 35 Sudoeste 0 -- -- 17
2020-06-30 18:00:00 36.8 18 Sudoeste 38 Sudoeste 0 -- -- 18
2020-06-30 17:00:00 36.4 17 Sudoeste 33 Sudoeste 0 -- -- 19
2020-06-30 16:00:00 36.3 12 Sur 35 Sudoeste 0 -- -- 21
2020-06-30 15:00:00 35.9 17 Sudoeste 32 Sudoeste 0 -- -- 19
2020-06-30 14:00:00 35.6 10 Sudoeste 27 Sur 0 -- -- 21
2020-06-30 13:00:00 34.8 16 Sur 31 Sur 0 -- -- 23
2020-06-30 12:00:00 33.6 4 Este 14 Sudeste 0 -- -- 25
2020-06-30 11:00:00 31.5 5 Sudeste 14 Sudeste 0 -- -- 30
2020-06-30 10:00:00 29.3 4 Sudeste 13 Sudeste 0 -- -- 32
2020-06-30 09:00:00 25.9 2 Nordeste 10 Sudeste 0 -- -- 42
2020-06-30 08:00:00 23.2 3 Sur 13 Sur 0 -- -- 46
2020-06-30 07:00:00 21.9 8 Sur 15 Sur 0 -- -- 49
2020-06-30 06:00:00 22.5 5 Sur 10 Sur 0 -- -- 48
2020-06-30 05:00:00 23.1 5 Sudeste 9 Sur 0 -- -- 40
2020-06-30 04:00:00 23.8 4 Sur 7 Sudeste 0 -- -- 37
2020-06-30 03:00:00 25.4 4 Sur 9 Sudeste 0 -- -- 33
2020-06-30 02:00:00 26.2 4 Sur 7 Sur 0 -- -- 34
2020-06-30 01:00:00 27 6 Sudeste 10 Sudeste 0 -- -- 32
2020-06-30 00:00:00 27.6 7 Sudoeste 10 Sudoeste 0 -- -- 32
2020-06-29 23:00:00 29.5 5 Oeste 11 Oeste 0 -- -- 29
2020-06-29 22:00:00 31.1 5 Noroeste 18 Oeste 0 -- -- 28
2020-06-29 21:00:00 34.6 11 Oeste 23 Oeste 0 -- -- 21
2020-06-29 20:00:00 35.6 15 Oeste 25 Oeste 0 -- -- 20
2020-06-29 19:00:00 36 11 Sudoeste 28 Sudoeste 0 -- -- 21
2020-06-29 18:00:00 35.7 12 Sudoeste 26 Sur 0 -- -- 22
2020-06-29 17:00:00 35.7 12 Oeste 26 Oeste 0 -- -- 22
2020-06-29 16:00:00 35.6 10 Sudoeste 27 Sudoeste 0 -- -- 23
2020-06-29 15:00:00 35 8 Sur 33 Sur 0 -- -- 23
2020-06-29 14:00:00 34.1 9 Sur 23 Oeste 0 -- -- 25
2020-06-29 13:00:00 32.3 7 Oeste 19 Sudeste 0 -- -- 30
2020-06-29 12:00:00 31.2 8 Sudoeste 15 Sudoeste 0 -- -- 33
2020-06-29 11:00:00 29.9 5 Oeste 12 Oeste 0 -- -- 35
2020-06-29 10:00:00 28.2 2 Sur 6 Oeste 0 -- -- 41
2020-06-29 09:00:00 24.6 3 Sudoeste 6 Oeste 0 -- -- 50
2020-06-29 08:00:00 22.7 2 Sur 9 Sudoeste 0 -- -- 52
2020-06-29 07:00:00 20.8 4 Sudoeste 7 Sudoeste 0 -- -- 56
2020-06-29 06:00:00 21.4 3 Sur 8 Sur 0 -- -- 51
2020-06-29 05:00:00 21.7 3 Sur 10 Oeste 0 -- -- 48
2020-06-29 04:00:00 22.6 4 Sudoeste 9 Oeste 0 -- -- 46
2020-06-29 03:00:00 23.6 5 Sudoeste 9 Sudoeste 0 -- -- 41
2020-06-29 02:00:00 24.3 3 Sudoeste 8 Sur 0 -- -- 39
2020-06-29 01:00:00 25.4 3 Sur 5 Sudeste 0 -- -- 36
2020-06-29 00:00:00 26.7 3 Sudoeste 8 Sudoeste 0 -- -- 33
2020-06-28 23:00:00 28.2 5 Oeste 9 Oeste 0 -- -- 33
2020-06-28 22:00:00 29.6 5 Noroeste 21 Oeste 0 -- -- 32
2020-06-28 21:00:00 32.5 10 Oeste 20 Oeste 0 -- -- 28
2020-06-28 20:00:00 33.2 7 Sudoeste 21 Oeste 0 -- -- 22
2020-06-28 19:00:00 33.9 14 Sudoeste 31 Oeste 0 -- -- 22
2020-06-28 18:00:00 34.4 10 Oeste 26 Oeste 0 -- -- 23
2020-06-28 17:00:00 33.2 10 Sudoeste 23 Sudoeste 0 -- -- 26
2020-06-28 16:00:00 33.6 6 Sur 26 Sudoeste 0 -- -- 25
2020-06-28 15:00:00 32.2 6 Sudoeste 18 Sudoeste 0 -- -- 29
2020-06-28 14:00:00 31.2 5 Noroeste 22 Sudeste 0 -- -- 32
2020-06-28 13:00:00 30.2 6 Norte 17 Sudoeste 0 -- -- 34
2020-06-28 12:00:00 29 4 Oeste 15 Noroeste 0 -- -- 37
2020-06-28 11:00:00 27.9 4 Nordeste 12 Norte 0 -- -- 40
2020-06-28 10:00:00 26.3 3 Norte 10 Norte 0 -- -- 43
2020-06-28 09:00:00 23.3 5 Noroeste 9 Noroeste 0 -- -- 51
2020-06-28 08:00:00 21.9 2 Sudeste 8 Sudeste 0 -- -- 52
2020-06-28 07:00:00 19.4 4 Sudeste 6 Sudeste 0 -- -- 56
2020-06-28 06:00:00 19.6 2 Sur 8 Sudoeste 0 -- -- 55
2020-06-28 05:00:00 20.7 3 Sur 8 Sudoeste 0 -- -- 52
2020-06-28 04:00:00 21.1 6 Oeste 12 Oeste 0 -- -- 52
2020-06-28 03:00:00 21.3 7 Oeste 12 Sudoeste 0 -- -- 47
2020-06-28 02:00:00 22.3 4 Sudoeste 6 Sudoeste 0 -- -- 44
2020-06-28 01:00:00 23.1 3 Sur 8 Sudoeste 0 -- -- 40
2020-06-28 00:00:00 24.8 4 Sudoeste 16 Oeste 0 -- -- 37
2020-06-27 23:00:00 26.1 7 Oeste 13 Oeste 0 -- -- 34
2020-06-27 22:00:00 27.9 8 Oeste 22 Noroeste 0 -- -- 32
2020-06-27 21:00:00 30 13 Noroeste 30 Noroeste 0 -- -- 29
2020-06-27 20:00:00 31 15 Oeste 30 Noroeste 0 -- -- 28
2020-06-27 19:00:00 31.7 14 Oeste 30 Oeste 0 -- -- 28
2020-06-27 18:00:00 31.4 14 Noroeste 31 Oeste 0 -- -- 29
2020-06-27 17:00:00 31.8 8 Oeste 26 Oeste 0 -- -- 28
2020-06-27 16:00:00 30.8 13 Noroeste 28 Oeste 0 -- -- 29
2020-06-27 15:00:00 30.1 11 Oeste 23 Oeste 0 -- -- 30
2020-06-27 14:00:00 29 8 Oeste 25 Oeste 0 -- -- 31
2020-06-27 13:00:00 28.1 6 Oeste 21 Oeste 0 -- -- 32
2020-06-27 12:00:00 26.4 5 Sudoeste 22 Noroeste 0 -- -- 37
2020-06-27 11:00:00 24.9 4 Nordeste 11 Noroeste 0 -- -- 41
2020-06-27 10:00:00 23.9 5 Norte 11 Norte 0 -- -- 44
2020-06-27 09:00:00 21.2 3 Sur 8 Sur 0 -- -- 44
2020-06-27 08:00:00 18.2 2 Sur 5 Sur 0 -- -- 44
2020-06-27 07:00:00 17.2 0 Calma 8 Sur 0 -- -- 45
2020-06-27 06:00:00 18.7 4 Sur 6 Sur 0 -- -- 42
2020-06-27 05:00:00 18.6 0 Calma 7 Oeste 0 -- -- 41
2020-06-27 04:00:00 19.2 2 Sudoeste 8 Sudoeste 0 -- -- 39
2020-06-27 03:00:00 19.8 4 Sudoeste 10 Sudoeste 0 -- -- 37
2020-06-27 02:00:00 20.1 6 Sudoeste 10 Sudoeste 0 -- -- 36
2020-06-27 01:00:00 21 3 Sur 13 Oeste 0 -- -- 30
2020-06-27 00:00:00 21.7 7 Oeste 13 Oeste 0 -- -- 24
2020-06-26 23:00:00 23.6 7 Oeste 17 Oeste 0 -- -- 21
2020-06-26 22:00:00 25.3 11 Sudoeste 27 Sudoeste 0 -- -- 22
2020-06-26 21:00:00 27.1 13 Sudoeste 27 Sudoeste 0 -- -- 21
2020-06-26 20:00:00 28.1 16 Sudoeste 34 Oeste 0 -- -- 20
2020-06-26 19:00:00 29.9 17 Sudoeste 37 Oeste 0 -- -- 22
2020-06-26 18:00:00 30 18 Oeste 35 Oeste 0 -- -- 26
2020-06-26 17:00:00 30.7 13 Sudoeste 30 Sudoeste 0 -- -- 25
2020-06-26 16:00:00 30.9 14 Sudoeste 31 Sudoeste 0 -- -- 24
2020-06-26 15:00:00 30.3 12 Sudoeste 27 Sudoeste 0 -- -- 26
2020-06-26 14:00:00 29.3 11 Sur 29 Sudoeste 0 -- -- 31
2020-06-26 13:00:00 28.6 17 Sudoeste 28 Sudoeste 0 -- -- 34
2020-06-26 12:00:00 27.6 12 Sudoeste 26 Sudoeste 0 -- -- 36
2020-06-26 11:00:00 27.9 6 Sur 19 Oeste 0 -- -- 34
2020-06-26 10:00:00 26.4 9 Oeste 21 Sudoeste 0 -- -- 35
2020-06-26 09:00:00 24.5 8 Sudoeste 15 Sudoeste 0 -- -- 41
2020-06-26 08:00:00 21.8 4 Sur 8 Sur 0 -- -- 51
2020-06-26 07:00:00 20.2 2 Sudoeste 5 Sur 0 -- -- 54
2020-06-26 06:00:00 21.3 4 Oeste 6 Oeste 0 -- -- 51
2020-06-26 05:00:00 22 5 Norte 14 Norte 0 -- -- 49
2020-06-26 04:00:00 22.2 5 Sur 14 Sudoeste 0 -- -- 46
2020-06-26 03:00:00 23.1 7 Sudoeste 15 Sudoeste 0 -- -- 43
2020-06-26 02:00:00 23.6 6 Sudoeste 13 Sudoeste 0 -- -- 41
2020-06-26 01:00:00 25 4 Sudoeste 9 Oeste 0 -- -- 38
2020-06-26 00:00:00 25.4 2 Oeste 10 Oeste 0 -- -- 37
2020-06-25 23:00:00 27.4 5 Oeste 17 Oeste 0 -- -- 33
2020-06-25 22:00:00 29.8 8 Oeste 24 Oeste 0 -- -- 30
2020-06-25 21:00:00 31.8 15 Oeste 24 Oeste 0 -- -- 27
2020-06-25 20:00:00 33.2 14 Oeste 31 Sudoeste 0 -- -- 24
2020-06-25 19:00:00 34.1 16 Sudoeste 42 Sudoeste 0 -- -- 23
2020-06-25 18:00:00 34.2 18 Sudoeste 33 Sudoeste 0 -- -- 24
2020-06-25 17:00:00 34 11 Sudoeste 24 Oeste 0 -- -- 25
2020-06-25 16:00:00 33.6 7 Sudeste 20 Sudoeste 0 -- -- 26
2020-06-25 15:00:00 32.1 9 Norte 26 Sur 0 -- -- 28
2020-06-25 14:00:00 32.6 5 Oeste 20 Noroeste 0 -- -- 27
2020-06-25 13:00:00 31.5 8 Nordeste 19 Nordeste 0 -- -- 30
2020-06-25 12:00:00 30 10 Oeste 22 Oeste 0 -- -- 31
2020-06-25 11:00:00 29.4 8 Sudeste 19 Sur 0 -- -- 33
2020-06-25 10:00:00 25.9 9 Sudeste 24 Sudeste 0 -- -- 42
2020-06-25 09:00:00 23.4 9 Sudeste 20 Sudeste 0 -- -- 47
2020-06-25 08:00:00 22.1 9 Sudeste 19 Sudeste 0 -- -- 47
2020-06-25 07:00:00 20.1 9 Sudeste 18 Sudeste 0 -- -- 51
2020-06-25 06:00:00 20.7 7 Sur 29 Sudeste 0 -- -- 50
2020-06-25 05:00:00 22.2 15 Sudeste 36 Sudeste 0 -- -- 42
2020-06-25 04:00:00 22.7 17 Sudeste 36 Sudeste 0 -- -- 41
2020-06-25 03:00:00 23.8 20 Sudeste 37 Sudeste 0 -- -- 36
2020-06-25 02:00:00 24.8 18 Sudeste 35 Sudeste 0 -- -- 35
2020-06-25 01:00:00 26.2 15 Sudeste 30 Sudeste 0 -- -- 32
2020-06-25 00:00:00 27.5 15 Este 30 Este 0 -- -- 31
2020-06-24 23:00:00 28.5 15 Este 37 Este 0 -- -- 31
2020-06-24 22:00:00 29.2 11 Este 24 Este 0 -- -- 32
2020-06-24 21:00:00 30.5 10 Este 23 Este 0 -- -- 28
2020-06-24 20:00:00 31.5 8 Este 20 Este 0 -- -- 27
2020-06-24 19:00:00 32.1 11 Este 23 Este 0 -- -- 26
2020-06-24 18:00:00 31.2 10 Este 19 Este 0 -- -- 30
2020-06-24 17:00:00 32.2 8 Sudeste 18 Este 0 -- -- 26
2020-06-24 16:00:00 30.2 8 Nordeste 21 Este 0 -- -- 33
2020-06-24 15:00:00 28.3 9 Sudeste 24 Sur 0 -- -- 40
2020-06-24 14:00:00 24.5 9 Sur 28 Sudeste 0 -- -- 52
2020-06-24 13:00:00 22.6 9 Sudeste 15 Sudeste 0 -- -- 58
2020-06-24 12:00:00 21.3 5 Sur 14 Sudeste 0 -- -- 64
2020-06-24 11:00:00 20.1 6 Sudeste 22 Sudeste 0 -- -- 65
2020-06-24 10:00:00 20.2 11 Sudeste 22 Sudeste 1 -- -- 67
2020-06-24 09:00:00 22.4 12 Sur 27 Sudeste 0 -- -- 52
2020-06-24 08:00:00 22.4 10 Sudeste 20 Sudeste 0 -- -- 50
2020-06-24 07:00:00 21.3 11 Sudeste 33 Este 0 -- -- 53
2020-06-24 06:00:00 21.8 17 Sudeste 36 Sudeste 0 -- -- 52
2020-06-24 05:00:00 22.5 15 Sudeste 28 Sudeste 0 -- -- 53
2020-06-24 04:00:00 23.6 15 Sudeste 34 Este 0 -- -- 48
2020-06-24 03:00:00 26 15 Este 29 Este 0 -- -- 40
2020-06-24 02:00:00 28.7 10 Este 29 Sudeste 0 -- -- 27
2020-06-24 01:00:00 28.6 11 Sur 27 Sudeste 0 -- -- 30
2020-06-24 00:00:00 29.6 14 Sudeste 38 Este 0 -- -- 28
2020-06-23 23:00:00 30.7 17 Sudeste 36 Este 0 -- -- 27
2020-06-23 22:00:00 32.4 8 Este 14 Este 0 -- -- 23
2020-06-23 21:00:00 34.6 8 Este 18 Nordeste 0 -- -- 20
2020-06-23 20:00:00 35.6 6 Norte 17 Nordeste 0 -- -- 20
2020-06-23 19:00:00 36 9 Norte 22 Norte 0 -- -- 19
2020-06-23 18:00:00 36.8 6 Nordeste 17 Norte 0 -- -- 19
2020-06-23 17:00:00 35.8 9 Nordeste 21 Nordeste 0 -- -- 21
2020-06-23 16:00:00 35 4 Nordeste 16 Este 0 -- -- 22
2020-06-23 15:00:00 34.3 4 Norte 15 Norte 0 -- -- 24
2020-06-23 14:00:00 33 11 Norte 22 Norte 0 -- -- 26
2020-06-23 13:00:00 31.7 6 Norte 13 Norte 0 -- -- 29
2020-06-23 12:00:00 29.8 4 Sudoeste 12 Sudeste 0 -- -- 33
2020-06-23 11:00:00 27.4 6 Este 14 Este 0 -- -- 39
2020-06-23 10:00:00 24.3 7 Sur 14 Sur 0 -- -- 44
2020-06-23 09:00:00 22.3 4 Sudeste 18 Sudeste 0 -- -- 50
2020-06-23 08:00:00 20.9 4 Este 18 Sudeste 0 -- -- 54
2020-06-23 07:00:00 19.4 11 Sudeste 22 Sudeste 0 -- -- 59
2020-06-23 06:00:00 20.4 5 Este 19 Sudeste 0 -- -- 57
2020-06-23 05:00:00 20.9 11 Este 30 Sudeste 0 -- -- 54
2020-06-23 04:00:00 22.3 8 Sudeste 29 Sudeste 0 -- -- 49
2020-06-23 03:00:00 23.6 11 Este 24 Este 0 -- -- 45
2020-06-23 02:00:00 25.7 3 Sur 18 Sudeste 0 -- -- 38
2020-06-23 01:00:00 27.5 9 Sudeste 19 Este 0 -- -- 34
2020-06-23 00:00:00 28.5 11 Este 20 Este 0 -- -- 30
2020-06-22 23:00:00 28.3 0 Calma 5 Noroeste 0 -- -- 26
2020-06-22 22:00:00 30.1 4 Norte 14 Norte 0 -- -- 24
2020-06-22 21:00:00 33.5 9 Norte 18 Norte 0 -- -- 20
2020-06-22 20:00:00 34.7 8 Noroeste 16 Oeste 0 -- -- 19
2020-06-22 19:00:00 35.5 7 Norte 18 Oeste 0 -- -- 19
2020-06-22 18:00:00 35.2 9 Noroeste 19 Sudoeste 0 -- -- 19
2020-06-22 17:00:00 34.8 7 Oeste 18 Sudoeste 0 -- -- 20
2020-06-22 16:00:00 34.1 10 Sur 21 Oeste 0 -- -- 21
2020-06-22 15:00:00 33.2 10 Oeste 19 Oeste 0 -- -- 23
2020-06-22 14:00:00 32.7 8 Nordeste 23 Nordeste 0 -- -- 26
2020-06-22 13:00:00 30.3 9 Nordeste 20 Nordeste 0 -- -- 33
2020-06-22 12:00:00 28.6 8 Este 18 Nordeste 0 -- -- 35
2020-06-22 11:00:00 26.9 9 Nordeste 19 Este 0 -- -- 38
2020-06-22 10:00:00 23.8 10 Nordeste 22 Nordeste 0 -- -- 43
2020-06-22 09:00:00 21.6 5 Norte 8 Norte 0 -- -- 47
2020-06-22 08:00:00 20.2 0 Calma 3 Oeste 0 -- -- 46
2020-06-22 07:00:00 16.7 0 Calma 4 Sur 0 -- -- 45
2020-06-22 06:00:00 17.1 0 Calma 9 Norte 0 -- -- 50
2020-06-22 05:00:00 17.9 4 Norte 8 Nordeste 0 -- -- 44
2020-06-22 04:00:00 20.4 0 Calma 6 Oeste 0 -- -- 35
2020-06-22 03:00:00 21 4 Noroeste 5 Noroeste 0 -- -- 33
2020-06-22 02:00:00 22.6 2 Noroeste 6 Noroeste 0 -- -- 31
2020-06-22 01:00:00 24.1 3 Sudoeste 7 Oeste 0 -- -- 29
2020-06-22 00:00:00 24.7 0 Calma 10 Oeste 0 -- -- 25
2020-06-21 23:00:00 26.7 5 Sudoeste 8 Sudoeste 0 -- -- 21
2020-06-21 22:00:00 28.6 5 Noroeste 18 Noroeste 0 -- -- 19
2020-06-21 21:00:00 31.5 12 Noroeste 26 Norte 0 -- -- 19
2020-06-21 20:00:00 32.8 10 Norte 24 Noroeste 0 -- -- 22
2020-06-21 19:00:00 33.7 12 Noroeste 23 Oeste 0 -- -- 21
2020-06-21 18:00:00 33.7 11 Oeste 23 Sudoeste 0 -- -- 17
2020-06-21 17:00:00 33.4 5 Noroeste 25 Sudoeste 0 -- -- 18
2020-06-21 16:00:00 33.2 7 Noroeste 21 Oeste 0 -- -- 19
2020-06-21 15:00:00 31.7 9 Oeste 17 Oeste 0 -- -- 22
2020-06-21 14:00:00 31.6 5 Oeste 20 Oeste 0 -- -- 22
2020-06-21 13:00:00 30.1 9 Oeste 19 Oeste 0 -- -- 25
2020-06-21 12:00:00 29.6 3 Sudeste 12 Norte 0 -- -- 27
2020-06-21 11:00:00 28.2 5 Nordeste 10 Norte 0 -- -- 29
2020-06-21 10:00:00 26.2 4 Noroeste 12 Noroeste 0 -- -- 32
2020-06-21 09:00:00 23.1 3 Sudoeste 6 Sur 0 -- -- 39
2020-06-21 08:00:00 20.6 4 Sur 7 Sur 0 -- -- 41
2020-06-21 07:00:00 18.5 2 Sudeste 6 Sudeste 0 -- -- 43
2020-06-21 06:00:00 19.4 4 Sur 9 Sur 0 -- -- 40
2020-06-21 05:00:00 19.7 2 Sudoeste 8 Oeste 0 -- -- 41
2020-06-21 04:00:00 19.6 3 Sudeste 9 Sur 0 -- -- 39
2020-06-21 03:00:00 20.7 4 Sudoeste 7 Sudoeste 0 -- -- 37
2020-06-21 02:00:00 21.3 3 Sur 10 Sudeste 0 -- -- 33
2020-06-21 01:00:00 22.6 4 Sudoeste 8 Sudoeste 0 -- -- 31
2020-06-21 00:00:00 23.4 4 Oeste 10 Oeste 0 -- -- 28
2020-06-20 23:00:00 24.7 4 Sudoeste 16 Sudoeste 0 -- -- 26
2020-06-20 22:00:00 27.1 8 Sudoeste 17 Sudoeste 0 -- -- 23
2020-06-20 21:00:00 30 11 Sudoeste 24 Sudoeste 0 -- -- 21
2020-06-20 20:00:00 31.1 13 Sudoeste 32 Sudoeste 0 -- -- 19
2020-06-20 19:00:00 31.8 13 Oeste 29 Sudoeste 0 -- -- 17
2020-06-20 18:00:00 32 11 Sudoeste 31 Oeste 0 -- -- 17
2020-06-20 17:00:00 31.1 11 Sudoeste 33 Sudoeste 0 -- -- 19
2020-06-20 16:00:00 31.1 13 Sudoeste 32 Oeste 0 -- -- 19
2020-06-20 15:00:00 30.3 14 Sudoeste 30 Oeste 0 -- -- 20
2020-06-20 14:00:00 29.9 13 Sudoeste 29 Sudoeste 0 -- -- 22
2020-06-20 13:00:00 29.5 9 Sudoeste 24 Oeste 0 -- -- 23
2020-06-20 12:00:00 28.1 6 Noroeste 15 Oeste 0 -- -- 25
2020-06-20 11:00:00 27.1 5 Sur 13 Sudeste 0 -- -- 26
2020-06-20 10:00:00 25.9 3 Este 6 Este 0 -- -- 28
2020-06-20 09:00:00 23.2 2 Sudeste 3 Sudeste 0 -- -- 32
2020-06-20 08:00:00 19.4 0 Calma 10 Sudeste 0 -- -- 39
2020-06-20 07:00:00 16.3 6 Sudeste 9 Sudeste 0 -- -- 44
2020-06-20 06:00:00 17.7 4 Sur 7 Sur 0 -- -- 42
2020-06-20 05:00:00 17.6 3 Sur 11 Sur 0 -- -- 43
2020-06-20 04:00:00 18.7 3 Sur 8 Sudoeste 0 -- -- 42
2020-06-20 03:00:00 18.5 5 Sur 8 Sur 0 -- -- 39
2020-06-20 02:00:00 20.1 3 Sudoeste 7 Sudoeste 0 -- -- 34
2020-06-20 01:00:00 21.1 2 Sudoeste 9 Oeste 0 -- -- 34
2020-06-20 00:00:00 22.2 4 Sudoeste 12 Oeste 0 -- -- 30
2020-06-19 23:00:00 23.5 8 Sudoeste 17 Sudoeste 0 -- -- 29
2020-06-19 22:00:00 25.5 10 Sudoeste 20 Sudoeste 0 -- -- 25
2020-06-19 21:00:00 27.6 11 Sudoeste 22 Sudoeste 0 -- -- 22
2020-06-19 20:00:00 29.1 10 Sudoeste 27 Oeste 0 -- -- 20
2020-06-19 19:00:00 29.5 14 Sudoeste 32 Sudoeste 0 -- -- 19
2020-06-19 18:00:00 29.8 12 Oeste 31 Sudoeste 0 -- -- 22
2020-06-19 17:00:00 29.2 14 Sudoeste 32 Sur 0 -- -- 25
2020-06-19 16:00:00 28.8 14 Oeste 48 Sur 0 -- -- 25
2020-06-19 15:00:00 27.8 12 Sudoeste 31 Sudoeste 0 -- -- 28
2020-06-19 14:00:00 27.9 14 Sudoeste 31 Sur 0 -- -- 27
2020-06-19 13:00:00 26.9 5 Sudeste 28 Oeste 0 -- -- 31
2020-06-19 12:00:00 25.8 7 Oeste 23 Oeste 0 -- -- 33
2020-06-19 11:00:00 23.8 6 Oeste 16 Oeste 0 -- -- 39
2020-06-19 10:00:00 21.9 5 Sudoeste 12 Oeste 0 -- -- 44
2020-06-19 09:00:00 19 3 Sur 6 Sur 0 -- -- 52
2020-06-19 08:00:00 17.3 4 Sudoeste 9 Sudoeste 0 -- -- 51
2020-06-19 07:00:00 15.5 4 Sudeste 6 Sudeste 0 -- -- 54
2020-06-19 06:00:00 16.7 6 Sudeste 12 Este 0 -- -- 50
2020-06-19 05:00:00 17.3 4 Sudeste 12 Sudoeste 0 -- -- 48
2020-06-19 04:00:00 18.1 8 Oeste 13 Oeste 0 -- -- 45
2020-06-19 03:00:00 18 8 Sudoeste 13 Sudoeste 0 -- -- 43
2020-06-19 02:00:00 18.6 4 Sudoeste 8 Sur 0 -- -- 41
2020-06-19 01:00:00 19.9 4 Sudoeste 12 Oeste 0 -- -- 40
2020-06-19 00:00:00 20.9 7 Oeste 11 Oeste 0 -- -- 38
2020-06-18 23:00:00 22.6 5 Oeste 12 Oeste 0 -- -- 34
2020-06-18 22:00:00 24.6 8 Oeste 19 Oeste 0 -- -- 31
2020-06-18 21:00:00 26.8 14 Oeste 22 Oeste 0 -- -- 30
2020-06-18 20:00:00 28 12 Oeste 23 Oeste 0 -- -- 27
2020-06-18 19:00:00 28.9 13 Sudoeste 28 Oeste 0 -- -- 24
2020-06-18 18:00:00 28 10 Noroeste 38 Sudoeste 0 -- -- 27
2020-06-18 17:00:00 28.2 5 Sur 22 Oeste 0 -- -- 29
2020-06-18 16:00:00 28.2 9 Oeste 41 Oeste 0 -- -- 27
2020-06-18 15:00:00 27.1 9 Sudoeste 25 Sur 0 -- -- 27
2020-06-18 14:00:00 26.5 7 Sur 21 Sudoeste 0 -- -- 28
2020-06-18 13:00:00 25 8 Noroeste 20 Norte 0 -- -- 31
2020-06-18 12:00:00 23.6 9 Sudoeste 18 Oeste 0 -- -- 34
2020-06-18 11:00:00 22.5 5 Oeste 15 Sudoeste 0 -- -- 38
2020-06-18 10:00:00 21 6 Oeste 12 Oeste 0 -- -- 42
2020-06-18 09:00:00 18.6 4 Oeste 10 Oeste 0 -- -- 48
2020-06-18 08:00:00 17.2 3 Sur 9 Sur 0 -- -- 47
2020-06-18 07:00:00 14.2 4 Sur 8 Sur 0 -- -- 54
2020-06-18 06:00:00 14.6 3 Sudeste 10 Sudoeste 0 -- -- 51
2020-06-18 05:00:00 16 5 Sudoeste 10 Sudoeste 0 -- -- 48
2020-06-18 04:00:00 16.4 5 Sur 8 Sur 0 -- -- 49
2020-06-18 03:00:00 16.7 4 Sur 9 Sudoeste 0 -- -- 49
2020-06-18 02:00:00 17.5 4 Sudoeste 12 Sudoeste 0 -- -- 46
2020-06-18 01:00:00 17.9 6 Sudoeste 12 Sudoeste 0 -- -- 44
2020-06-18 00:00:00 19.1 5 Sudoeste 10 Oeste 0 -- -- 37
2020-06-17 23:00:00 20.7 6 Oeste 13 Oeste 0 -- -- 33
2020-06-17 22:00:00 22.6 8 Oeste 18 Sudoeste 0 -- -- 31
2020-06-17 21:00:00 24.3 10 Oeste 23 Noroeste 0 -- -- 30
2020-06-17 20:00:00 24.3 8 Oeste 23 Oeste 0 -- -- 32
2020-06-17 19:00:00 24.6 11 Oeste 26 Oeste 0 -- -- 32
2020-06-17 18:00:00 25.9 15 Oeste 25 Oeste 0 -- -- 30
2020-06-17 17:00:00 25.5 12 Sudoeste 28 Oeste 0 -- -- 30
2020-06-17 16:00:00 25 12 Oeste 26 Norte 0 -- -- 30
2020-06-17 15:00:00 24.5 5 Sudoeste 18 Norte 0 -- -- 32
2020-06-17 14:00:00 23 12 Oeste 23 Oeste 0 -- -- 34
2020-06-17 13:00:00 21.8 7 Noroeste 17 Sudoeste 0 -- -- 38
2020-06-17 12:00:00 20.7 6 Oeste 20 Oeste 0 -- -- 41
2020-06-17 11:00:00 20.3 7 Norte 20 Noroeste 0 -- -- 43
2020-06-17 10:00:00 18.8 6 Noroeste 16 Noroeste 0 -- -- 47
2020-06-17 09:00:00 16.7 8 Noroeste 14 Noroeste 0 -- -- 55
2020-06-17 08:00:00 15.5 3 Sur 10 Oeste 0 -- -- 59
2020-06-17 07:00:00 13.4 6 Oeste 12 Oeste 0 -- -- 65
2020-06-17 06:00:00 14.1 5 Oeste 11 Oeste 0 -- -- 63
2020-06-17 05:00:00 14.5 6 Oeste 15 Oeste 0 -- -- 60
2020-06-17 04:00:00 14.6 7 Sudoeste 12 Oeste 0 -- -- 61
2020-06-17 03:00:00 15.7 5 Oeste 18 Oeste 0 -- -- 59
2020-06-17 02:00:00 17.6 10 Oeste 21 Oeste 0 -- -- 53
2020-06-17 01:00:00 18.5 10 Oeste 21 Oeste 0 -- -- 52
2020-06-17 00:00:00 19.5 7 Oeste 21 Oeste 0 -- -- 49
2020-06-16 23:00:00 20 5 Noroeste 12 Norte 0 -- -- 48
2020-06-16 22:00:00 20.3 6 Norte 26 Noroeste 0 -- -- 48
2020-06-16 21:00:00 23.2 20 Oeste 39 Oeste 0 -- -- 36
2020-06-16 20:00:00 24 26 Oeste 38 Oeste 0 -- -- 32
2020-06-16 19:00:00 24.8 24 Oeste 41 Oeste 0 -- -- 30
2020-06-16 18:00:00 26 18 Oeste 44 Oeste 0 -- -- 29
2020-06-16 17:00:00 25.9 23 Oeste 37 Oeste 0 -- -- 28
2020-06-16 16:00:00 25.3 17 Oeste 35 Oeste 0 -- -- 33
2020-06-16 15:00:00 24.5 16 Noroeste 37 Oeste 0 -- -- 36
2020-06-16 14:00:00 24.6 17 Oeste 32 Noroeste 0 -- -- 36
2020-06-16 13:00:00 23.1 15 Oeste 33 Oeste 0 -- -- 37
2020-06-16 12:00:00 21.6 9 Noroeste 24 Oeste 0 -- -- 43
2020-06-16 11:00:00 20.9 8 Noroeste 19 Norte 0 -- -- 47
2020-06-16 10:00:00 19.4 5 Noroeste 11 Noroeste 0 -- -- 51
2020-06-16 09:00:00 17.1 6 Noroeste 12 Noroeste 0 -- -- 56
2020-06-16 08:00:00 16 3 Sur 6 Sudeste 0 -- -- 59
2020-06-16 07:00:00 14 2 Sudeste 8 Sudoeste 0 -- -- 64
2020-06-16 06:00:00 14.6 2 Sur 6 Sur 0 -- -- 64
2020-06-16 05:00:00 15.3 0 Calma 8 Noroeste 0 -- -- 61
2020-06-16 04:00:00 15.8 6 Noroeste 14 Noroeste 0 -- -- 60
2020-06-16 03:00:00 17 8 Noroeste 18 Noroeste 0 -- -- 56
2020-06-16 02:00:00 17.9 7 Noroeste 14 Noroeste 0 -- -- 50
2020-06-16 01:00:00 18.9 3 Noroeste 12 Oeste 0 -- -- 46
2020-06-16 00:00:00 20.3 7 Oeste 18 Oeste 0 -- -- 41
2020-06-15 23:00:00 21.3 6 Oeste 16 Oeste 0 -- -- 36
2020-06-15 22:00:00 22.7 8 Sudoeste 27 Oeste 0 -- -- 30
2020-06-15 21:00:00 24.4 13 Oeste 26 Oeste 0 -- -- 27
2020-06-15 20:00:00 26.4 14 Oeste 27 Sudoeste 0 -- -- 27
2020-06-15 19:00:00 26.9 13 Oeste 32 Oeste 0 -- -- 22
2020-06-15 18:00:00 26.8 15 Sudoeste 36 Sudoeste 0 -- -- 18
2020-06-15 17:00:00 26.7 18 Oeste 32 Sudoeste 0 -- -- 21
2020-06-15 16:00:00 26.5 15 Sudoeste 31 Oeste 0 -- -- 22
2020-06-15 15:00:00 25.4 17 Sudoeste 33 Oeste 0 -- -- 22
2020-06-15 14:00:00 24.7 15 Sudoeste 32 Sudoeste 0 -- -- 23
2020-06-15 13:00:00 23.5 14 Sudoeste 30 Oeste 0 -- -- 25
2020-06-15 12:00:00 22.7 8 Sudoeste 22 Oeste 0 -- -- 29
2020-06-15 11:00:00 21.4 10 Oeste 22 Oeste 0 -- -- 38
2020-06-15 10:00:00 20.2 9 Oeste 19 Oeste 0 -- -- 44
2020-06-15 09:00:00 18.6 4 Norte 7 Norte 0 -- -- 49
2020-06-15 08:00:00 17.3 2 Sudeste 9 Sur 0 -- -- 50
2020-06-15 07:00:00 13 5 Sur 9 Sudeste 0 -- -- 60
2020-06-15 06:00:00 13.5 4 Sur 10 Sudeste 0 -- -- 56
2020-06-15 05:00:00 14.7 4 Sudoeste 9 Oeste 0 -- -- 54
2020-06-15 04:00:00 14.8 4 Sudoeste 10 Sudoeste 0 -- -- 51
2020-06-15 03:00:00 15.8 4 Sudoeste 9 Sudoeste 0 -- -- 48
2020-06-15 02:00:00 16.6 4 Sudoeste 8 Sudoeste 0 -- -- 45
2020-06-15 01:00:00 17.4 5 Sudoeste 9 Sudoeste 0 -- -- 42
2020-06-15 00:00:00 18.9 7 Oeste 13 Oeste 0 -- -- 39
2020-06-14 23:00:00 20 6 Sudoeste 15 Oeste 0 -- -- 38
2020-06-14 22:00:00 21.7 10 Oeste 24 Oeste 0 -- -- 34
2020-06-14 21:00:00 23.8 17 Oeste 30 Oeste 0 -- -- 32
2020-06-14 20:00:00 25.2 13 Noroeste 27 Noroeste 0 -- -- 29
2020-06-14 19:00:00 25.7 15 Oeste 28 Oeste 0 -- -- 30
2020-06-14 18:00:00 25.8 9 Oeste 26 Oeste 0 -- -- 30
2020-06-14 17:00:00 25.5 16 Oeste 29 Sudoeste 0 -- -- 30
2020-06-14 16:00:00 25.3 15 Oeste 33 Oeste 0 -- -- 29
2020-06-14 15:00:00 24.1 12 Sudoeste 32 Sudoeste 0 -- -- 31
2020-06-14 14:00:00 23.4 14 Sudoeste 31 Oeste 0 -- -- 34
2020-06-14 13:00:00 21.8 14 Oeste 31 Oeste 0 -- -- 36
2020-06-14 12:00:00 20.5 12 Oeste 27 Oeste 0 -- -- 40
2020-06-14 11:00:00 19.8 8 Noroeste 19 Oeste 0 -- -- 45
2020-06-14 10:00:00 18.7 5 Noroeste 15 Oeste 0 -- -- 47
2020-06-14 09:00:00 16.7 8 Oeste 15 Oeste 0 -- -- 53
2020-06-14 08:00:00 14.9 3 Sudoeste 6 Sudoeste 0 -- -- 58
2020-06-14 07:00:00 12.9 4 Sudoeste 9 Oeste 0 -- -- 64
2020-06-14 06:00:00 12.6 3 Oeste 6 Sur 0 -- -- 64
2020-06-14 05:00:00 12.7 3 Sur 6 Sur 0 -- -- 64
2020-06-14 04:00:00 12.9 4 Sur 10 Sudeste 0 -- -- 62
2020-06-14 03:00:00 13.4 4 Sur 8 Sur 0 -- -- 59
2020-06-14 02:00:00 14 3 Sur 9 Sur 0 -- -- 56
2020-06-14 01:00:00 14.9 3 Sur 9 Sudoeste 0 -- -- 53
2020-06-14 00:00:00 15.8 3 Oeste 10 Sudoeste 0 -- -- 50
2020-06-13 23:00:00 17.1 5 Sudoeste 13 Sudoeste 0 -- -- 47
2020-06-13 22:00:00 18.9 10 Oeste 24 Sudoeste 0 -- -- 41
2020-06-13 21:00:00 20.6 18 Oeste 30 Oeste 0 -- -- 40
2020-06-13 20:00:00 22.5 14 Oeste 29 Oeste 0 -- -- 35
2020-06-13 19:00:00 22.7 16 Oeste 27 Oeste 0 -- -- 34
2020-06-13 18:00:00 21.7 9 Oeste 25 Oeste 0 -- -- 35
2020-06-13 17:00:00 23.2 12 Sudoeste 27 Oeste 0 -- -- 33
2020-06-13 16:00:00 21.5 12 Sudoeste 30 Oeste 0 -- -- 36
2020-06-13 15:00:00 20.9 9 Oeste 26 Noroeste 0 -- -- 37
2020-06-13 14:00:00 20.6 8 Oeste 21 Oeste 0 -- -- 39
2020-06-13 13:00:00 18.9 10 Norte 23 Oeste 0 -- -- 45
2020-06-13 12:00:00 17.2 11 Oeste 24 Noroeste 0 -- -- 49
2020-06-13 11:00:00 16 11 Noroeste 22 Oeste 0 -- -- 56
2020-06-13 10:00:00 15 13 Oeste 26 Oeste 0 -- -- 58
2020-06-13 09:00:00 13.4 11 Oeste 18 Oeste 0 -- -- 62
2020-06-13 08:00:00 12.4 2 Nordeste 8 Sur 0 -- -- 67
2020-06-13 07:00:00 9.7 5 Sur 9 Sur 0 -- -- 75
2020-06-13 06:00:00 9.7 2 Sudeste 8 Sur 0 -- -- 71
2020-06-13 05:00:00 10.3 6 Sudoeste 15 Oeste 0 -- -- 69
2020-06-13 04:00:00 11.1 5 Oeste 15 Sudoeste 0 -- -- 68
2020-06-13 03:00:00 12 6 Sudoeste 18 Sudoeste 0 -- -- 64
2020-06-13 02:00:00 12.4 4 Oeste 16 Sudoeste 0 -- -- 63
2020-06-13 01:00:00 13 7 Oeste 19 Sudoeste 0 -- -- 63
2020-06-13 00:00:00 13.3 10 Oeste 25 Oeste 0 -- -- 66
2020-06-12 23:00:00 13.7 9 Oeste 39 Oeste 0 -- -- 66
2020-06-12 22:00:00 16.3 13 Sudoeste 28 Sudoeste 0 -- -- 50
2020-06-12 21:00:00 17.4 16 Sudoeste 33 Sudoeste 0 -- -- 46
2020-06-12 20:00:00 17.9 17 Sudoeste 38 Sudoeste 0 -- -- 46
2020-06-12 19:00:00 19.6 19 Sudoeste 36 Sudoeste 0.2 -- -- 40
2020-06-12 18:00:00 -- 16 Sudoeste -- -- -- -- -- --
2020-06-12 17:00:00 -- -- -- -- -- -- -- -- --
2020-06-12 16:00:00 -- -- -- -- -- -- -- -- --
2020-06-12 15:00:00 -- -- -- -- -- -- -- -- --
2020-06-12 14:00:00 -- -- -- -- -- -- -- -- --
2020-06-12 13:00:00 -- -- -- -- -- -- -- -- --
2020-06-12 12:00:00 -- -- -- -- -- -- -- -- --
2020-06-12 11:00:00 -- -- -- -- -- -- -- -- --
2020-06-12 10:00:00 -- -- -- -- -- -- -- -- --
2020-06-12 09:00:00 -- -- -- -- -- -- -- -- --
2020-06-12 08:00:00 -- -- -- -- -- -- -- -- --
2020-06-12 07:00:00 -- -- -- -- -- -- -- -- --
2020-06-12 06:00:00 -- -- -- -- -- -- -- -- --
2020-06-12 05:00:00 -- -- -- -- -- -- -- -- --
2020-06-12 04:00:00 -- -- -- -- -- -- -- -- --
2020-06-12 03:00:00 -- -- -- -- -- -- -- -- --
2020-06-12 02:00:00 -- -- -- -- -- -- -- -- --
2020-06-12 01:00:00 -- -- -- -- -- -- -- -- --
2020-06-12 00:00:00 -- -- -- -- -- -- -- -- --
2020-06-11 23:00:00 -- -- -- -- -- -- -- -- --
2020-06-11 22:00:00 -- -- -- -- -- -- -- -- --
2020-06-11 21:00:00 -- -- -- -- -- -- -- -- --
2020-06-11 20:00:00 -- -- -- -- -- -- -- -- --
2020-06-11 19:00:00 -- -- -- -- -- -- -- -- --
2020-06-11 18:00:00 -- -- -- -- -- -- -- -- --
2020-06-11 17:00:00 -- -- -- -- -- -- -- -- --
2020-06-11 16:00:00 -- -- -- -- -- -- -- -- --
2020-06-11 15:00:00 -- -- -- -- -- -- -- -- --
2020-06-11 14:00:00 -- -- -- -- -- -- -- -- --
2020-06-11 13:00:00 -- -- -- -- -- -- -- -- --
2020-06-11 12:00:00 -- -- -- -- -- -- -- -- --
2020-06-11 11:00:00 -- -- -- -- -- -- -- -- --
2020-06-11 10:00:00 -- -- -- -- -- -- -- -- --
2020-06-11 09:00:00 -- -- -- -- -- -- -- -- --
2020-06-11 08:00:00 -- -- -- -- -- -- -- -- --
2020-06-11 07:00:00 -- -- -- -- -- -- -- -- --
2020-06-11 06:00:00 -- -- -- -- -- -- -- -- --
2020-06-11 05:00:00 -- -- -- -- -- -- -- -- --
2020-06-11 04:00:00 -- -- -- -- -- -- -- -- --
2020-06-11 03:00:00 -- -- -- -- -- -- -- -- --
2020-06-11 02:00:00 -- -- -- -- -- -- -- -- --
2020-06-11 01:00:00 -- -- -- -- -- -- -- -- --
2020-06-11 00:00:00 -- -- -- -- -- -- -- -- --
2020-06-10 23:00:00 -- -- -- -- -- -- -- -- --
2020-06-10 22:00:00 -- -- -- -- -- -- -- -- --
2020-06-10 21:00:00 -- -- -- -- -- -- -- -- --
2020-06-10 20:00:00 -- -- -- -- -- -- -- -- --
2020-06-10 19:00:00 -- -- -- -- -- -- -- -- --
2020-06-10 18:00:00 -- -- -- -- -- -- -- -- --
2020-06-10 17:00:00 -- -- -- -- -- -- -- -- --
2020-06-10 16:00:00 -- -- -- -- -- -- -- -- --
2020-06-10 15:00:00 -- -- -- -- -- -- -- -- --
2020-06-10 14:00:00 -- -- -- -- -- -- -- -- --
2020-06-10 13:00:00 -- -- -- -- -- -- -- -- --
2020-06-10 12:00:00 -- -- -- -- -- -- -- -- --
2020-06-10 11:00:00 -- -- -- -- -- -- -- -- --
2020-06-10 10:00:00 -- -- -- -- -- -- -- -- --
2020-06-10 09:00:00 -- -- -- -- -- -- -- -- --
2020-06-10 08:00:00 -- -- -- -- -- -- -- -- --
2020-06-10 07:00:00 -- -- -- -- -- -- -- -- --
2020-06-10 06:00:00 -- -- -- -- -- -- -- -- --
2020-06-10 05:00:00 -- -- -- -- -- -- -- -- --
2020-06-10 04:00:00 -- -- -- -- -- -- -- -- --
2020-06-10 03:00:00 -- -- -- -- -- -- -- -- --
2020-06-10 02:00:00 -- -- -- -- -- -- -- -- --
2020-06-10 01:00:00 -- -- -- -- -- -- -- -- --
2020-06-10 00:00:00 -- -- -- -- -- -- -- -- --
2020-06-09 23:00:00 -- -- -- -- -- -- -- -- --
2020-06-09 22:00:00 -- -- -- -- -- -- -- -- --
2020-06-09 21:00:00 -- -- -- -- -- -- -- -- --
2020-06-09 20:00:00 -- -- -- -- -- -- -- -- --
2020-06-09 19:00:00 -- -- -- -- -- -- -- -- --
2020-06-09 18:00:00 -- -- -- -- -- -- -- -- --
2020-06-09 17:00:00 -- -- -- -- -- -- -- -- --
2020-06-09 16:00:00 -- -- -- -- -- -- -- -- --
2020-06-09 15:00:00 -- -- -- -- -- -- -- -- --
2020-06-09 14:00:00 -- -- -- -- -- -- -- -- --
2020-06-09 13:00:00 -- -- -- -- -- -- -- -- --
2020-06-09 12:00:00 -- -- -- -- -- -- -- -- --
2020-06-09 11:00:00 -- -- -- -- -- -- -- -- --
2020-06-09 10:00:00 -- -- -- -- -- -- -- -- --
2020-06-09 09:00:00 -- -- -- -- -- -- -- -- --
2020-06-09 08:00:00 -- -- -- -- -- -- -- -- --
2020-06-09 07:00:00 -- -- -- -- -- -- -- -- --
2020-06-09 06:00:00 -- -- -- -- -- -- -- -- --
2020-06-09 05:00:00 -- -- -- -- -- -- -- -- --
2020-06-09 04:00:00 -- -- -- -- -- -- -- -- --
2020-06-09 03:00:00 -- -- -- -- -- -- -- -- --
2020-06-09 02:00:00 -- -- -- -- -- -- -- -- --
2020-06-09 01:00:00 -- -- -- -- -- -- -- -- --
2020-06-09 00:00:00 -- -- -- -- -- -- -- -- --
2020-06-08 23:00:00 -- -- -- -- -- -- -- -- --
2020-06-08 22:00:00 -- -- -- -- -- -- -- -- --
2020-06-08 21:00:00 -- -- -- -- -- -- -- -- --
2020-06-08 20:00:00 -- -- -- -- -- -- -- -- --
2020-06-08 19:00:00 -- -- -- -- -- -- -- -- --
2020-06-08 18:00:00 -- -- -- -- -- -- -- -- --
2020-06-08 17:00:00 -- -- -- -- -- -- -- -- --
2020-06-08 16:00:00 -- -- -- -- -- -- -- -- --
2020-06-08 15:00:00 -- -- -- -- -- -- -- -- --
2020-06-08 14:00:00 -- -- -- -- -- -- -- -- --
2020-06-08 13:00:00 -- -- -- -- -- -- -- -- --
2020-06-08 12:00:00 -- -- -- -- -- -- -- -- --
2020-06-08 11:00:00 -- -- -- -- -- -- -- -- --
2020-06-08 10:00:00 -- -- -- -- -- -- -- -- --
2020-06-08 09:00:00 -- -- -- -- -- -- -- -- --
2020-06-08 08:00:00 -- -- -- -- -- -- -- -- --
2020-06-08 07:00:00 -- -- -- -- -- -- -- -- --
2020-06-08 06:00:00 -- -- -- -- -- -- -- -- --
2020-06-08 05:00:00 -- -- -- -- -- -- -- -- --
2020-06-08 04:00:00 -- -- -- -- -- -- -- -- --
2020-06-08 03:00:00 -- -- -- -- -- -- -- -- --
2020-06-08 02:00:00 -- -- -- -- -- -- -- -- --
2020-06-08 01:00:00 -- -- -- -- -- -- -- -- --
2020-06-08 00:00:00 -- -- -- -- -- -- -- -- --
2020-06-07 23:00:00 -- -- -- -- -- -- -- -- --
2020-06-07 22:00:00 -- -- -- -- -- -- -- -- --
2020-06-07 21:00:00 -- -- -- -- -- -- -- -- --
2020-06-07 20:00:00 -- -- -- -- -- -- -- -- --
2020-06-07 19:00:00 -- -- -- -- -- -- -- -- --
2020-06-07 18:00:00 -- -- -- -- -- -- -- -- --
2020-06-07 17:00:00 24.3 21 Oeste 43 Oeste 0 -- -- 38
2020-06-07 16:00:00 24 19 Oeste 37 Oeste 0 -- -- 37
2020-06-07 15:00:00 24 19 Oeste 36 Sudoeste 0 -- -- 31
2020-06-07 14:00:00 23.5 17 Sudoeste 35 Sudoeste 0 -- -- 32
2020-06-07 13:00:00 23 16 Oeste 30 Sudoeste 0 -- -- 34
2020-06-07 12:00:00 21.4 13 Sudoeste 27 Sudoeste 0 -- -- 39
2020-06-07 11:00:00 20.4 10 Sudoeste 21 Oeste 0 -- -- 44
2020-06-07 10:00:00 18.9 10 Oeste 22 Oeste 0 -- -- 49
2020-06-07 09:00:00 17.2 10 Sudoeste 17 Sudoeste 0 -- -- 59
2020-06-07 08:00:00 17.1 2 Sur 8 Sur 0 -- -- 56
2020-06-07 07:00:00 15.5 6 Sur 9 Sur 0 -- -- 58
2020-06-07 06:00:00 15.9 0 Calma 11 Norte 0 -- -- 58
2020-06-07 05:00:00 15.5 4 Noroeste 18 Oeste 0 -- -- 56
2020-06-07 04:00:00 17.3 8 Sudoeste 19 Sudoeste 0 -- -- 50
2020-06-07 03:00:00 18.1 13 Sudoeste 22 Sudoeste 0 -- -- 46
2020-06-07 02:00:00 19.1 11 Oeste 21 Oeste 0 -- -- 42
2020-06-07 01:00:00 19.5 5 Sudoeste 12 Oeste 0 -- -- 42
2020-06-07 00:00:00 19.3 5 Oeste 15 Sudoeste 0 -- -- 43
2020-06-06 23:00:00 21 8 Sudoeste 22 Oeste 0 -- -- 39
2020-06-06 22:00:00 22.1 11 Oeste 25 Sudoeste 0 -- -- 38
2020-06-06 21:00:00 23.8 14 Oeste 31 Oeste 0 -- -- 35
2020-06-06 20:00:00 25.6 20 Oeste 44 Oeste 0 -- -- 33
2020-06-06 19:00:00 26.7 17 Sudoeste 48 Sudoeste 0 -- -- 32
2020-06-06 18:00:00 26.6 19 Sudoeste 38 Sudoeste 0 -- -- 32
2020-06-06 17:00:00 26.4 18 Sudoeste 40 Sudoeste 0 -- -- 33
2020-06-06 16:00:00 26.3 17 Sudoeste 36 Sudoeste 0 -- -- 33
2020-06-06 15:00:00 25.5 12 Sudoeste 37 Sur 0 -- -- 36
2020-06-06 14:00:00 24.9 11 Sudoeste 25 Sudoeste 0 -- -- 34
2020-06-06 13:00:00 23.8 14 Oeste 34 Oeste 0 -- -- 40
2020-06-06 12:00:00 22.8 17 Oeste 30 Oeste 0 -- -- 42
2020-06-06 11:00:00 22.6 15 Sudoeste 30 Sudoeste 0 -- -- 43
2020-06-06 10:00:00 22.2 10 Sudoeste 22 Oeste 0 -- -- 44
2020-06-06 09:00:00 19.7 4 Sudoeste 10 Sudoeste 0 -- -- 53
2020-06-06 08:00:00 17.2 4 Sur 9 Sur 0 -- -- 54
2020-06-06 07:00:00 14.9 4 Sur 8 Sur 0 -- -- 58
2020-06-06 06:00:00 15.8 4 Sur 8 Sudoeste 0 -- -- 52
2020-06-06 05:00:00 16 3 Sur 10 Sudoeste 0 -- -- 50
2020-06-06 04:00:00 17 3 Sur 6 Sur 0 -- -- 46
2020-06-06 03:00:00 17.1 3 Sur 8 Sudeste 0 -- -- 47
2020-06-06 02:00:00 18.4 0 Calma 6 Sudoeste 0 -- -- 41
2020-06-06 01:00:00 19.5 3 Sudoeste 9 Sudoeste 0 -- -- 34
2020-06-06 00:00:00 20.2 7 Sudoeste 12 Oeste 0 -- -- 29
2020-06-05 23:00:00 21.4 6 Sudoeste 13 Sudoeste 0 -- -- 33
2020-06-05 22:00:00 22.9 8 Sudoeste 22 Sudoeste 0 -- -- 36
2020-06-05 21:00:00 25.4 10 Sudoeste 24 Sudoeste 0 -- -- 34
2020-06-05 20:00:00 26.3 15 Sudoeste 25 Sudoeste 0 -- -- 33
2020-06-05 19:00:00 27.3 14 Sudoeste 22 Sudoeste 0 -- -- 33
2020-06-05 18:00:00 27.3 11 Oeste 24 Sudoeste 0 -- -- 29
2020-06-05 17:00:00 27 10 Sudoeste 22 Oeste 0 -- -- 29
2020-06-05 16:00:00 26.8 10 Oeste 25 Oeste 0 -- -- 29
2020-06-05 15:00:00 25.3 10 Noroeste 20 Oeste 0 -- -- 32
2020-06-05 14:00:00 24.2 6 Norte 19 Oeste 0 -- -- 34
2020-06-05 13:00:00 23.5 5 Oeste 14 Sudoeste 0 -- -- 35
2020-06-05 12:00:00 21.5 3 Sudoeste 11 Sur 0 -- -- 40
2020-06-05 11:00:00 20.8 4 Sudeste 10 Sudeste 0 -- -- 41
2020-06-05 10:00:00 19.4 5 Este 10 Sudeste 0 -- -- 47
2020-06-05 09:00:00 15.8 3 Sur 5 Sur 0 -- -- 58
2020-06-05 08:00:00 13.5 0 Calma 9 Sudeste 0 -- -- 62
2020-06-05 07:00:00 10.6 3 Sur 7 Sur 0 -- -- 71
2020-06-05 06:00:00 11 0 Calma 9 Sur 0 -- -- 72
2020-06-05 05:00:00 11.7 3 Sudeste 6 Sudeste 0 -- -- 72
2020-06-05 04:00:00 11.4 0 Calma 5 Sudeste 0 -- -- 74
2020-06-05 03:00:00 13.7 3 Sudeste 11 Sudeste 0.2 -- -- 62
2020-06-05 02:00:00 13.8 0 Calma 11 Sudeste 0 -- -- 62
2020-06-05 01:00:00 14.7 3 Sur 8 Oeste 0 -- -- 62
2020-06-05 00:00:00 16.2 3 Oeste 10 Oeste 0 -- -- 57